2024-247W (62397 NORAD) Tracking and Keplerian Element Data

This shows tracking and keplerian element data for the satellite.

Feedback or suggestion? Click here.




ElementValue
Catalog62397
Name2024-247W
Epoch Orbit681
Epoch Day34.27792403
Epoch Year2025
RAAN124.3069
Inclination44.9952
Eccentricity0.0003379
Argument of Perigee270.9927
Mean Anonmoly89.0567
Mean Motion15.22264215
Decay Rate0.00034976
L11 62397U 24247W 25034.27792403 .00034976 00000+0 14975-2 0 9990
L22 62397 44.9952 124.3069 0003379 270.9927 89.0567 15.22264215 6815



Live tracking and technical data element details for 2024-247W (NORAD 62397). 2024-247W can be tracked NOW for your location showing map with azimuth and elevation plus other details from your city location.







IsCatalogInMostPopularTable: catalog: 62397, numindb: 8
Update: records affected: 1



GetName: 62397 2024-247W

Hit Count: updated at: Sat, 24 May 2025 17:06:10 GMT